K9YK-13 Weather Reports


Display with metric or nautical units.
time (UTC)temp
F
wind
direction
speed
MPH
gust
MPH
rain 1hr
in
rain 24hr
in
rain mn
in
humidity
%
barometer
mb
20260503215110 65 359 0.0 0.0 0.00 0.00 0.00 53
20260503214610 65 359 0.0 0.0 0.00 0.00 0.00 52
20260503214110 66 359 0.0 0.0 0.00 0.00 0.00 52
20260503213610 65 359 0.0 0.0 0.00 0.00 0.00 52
20260503213110 64 359 0.0 0.0 0.00 0.00 0.00 52
20260503212610 66 359 0.0 0.0 0.00 0.00 0.00 52
20260503212111 66 359 0.0 0.0 0.00 0.00 0.00 52
20260503211611 66 359 0.0 0.0 0.00 0.00 0.00 51
20260503211111 66 359 0.0 0.0 0.00 0.00 0.00 52
20260503210610 66 359 0.0 0.0 0.00 0.00 0.00 52
20260503210111 65 359 0.0 0.0 0.00 0.00 0.00 52
20260503205611 64 359 0.0 0.0 0.00 0.00 0.00 52
20260503205111 66 359 0.0 0.0 0.00 0.00 0.00 51
20260503204611 67 359 0.0 0.0 0.00 0.00 0.00 51
20260503204110 67 359 0.0 0.0 0.00 0.00 0.00 50
20260503203610 67 359 0.0 0.0 0.00 0.00 0.00 52
20260503203110 65 359 0.0 0.0 0.00 0.00 0.00 52
20260503202610 66 359 0.0 0.0 0.00 0.00 0.00 52
20260503202111 63 359 0.0 0.0 0.00 0.00 0.00 53
20260503201610 63 359 0.0 0.0 0.00 0.00 0.00 53
20260503201111 64 359 0.0 0.0 0.00 0.00 0.00 52
20260503200610 64 359 0.0 0.0 0.00 0.00 0.00 52
20260503200111 65 359 0.0 0.0 0.00 0.00 0.00 52
20260503195610 65 359 0.0 0.0 0.00 0.00 0.00 52
20260503195110 64 359 0.0 0.0 0.00 0.00 0.00 53
20260503194611 64 359 0.0 0.0 0.00 0.00 0.00 52
20260503194111 66 359 0.0 0.0 0.00 0.00 0.00 52
20260503193610 65 359 0.0 0.0 0.00 0.00 0.00 51
20260503193110 65 359 0.0 0.0 0.00 0.00 0.00 52
20260503192611 65 359 0.0 0.0 0.00 0.00 0.00 52
20260503192111 64 359 0.0 0.0 0.00 0.00 0.00 52
20260503191611 65 359 0.0 0.0 0.00 0.00 0.00 52
20260503191111 65 359 0.0 0.0 0.00 0.00 0.00 51
20260503190610 64 359 0.0 0.0 0.00 0.00 0.00 52
20260503190111 64 359 0.0 0.0 0.00 0.00 0.00 52
20260503185610 64 359 0.0 0.0 0.00 0.00 0.00 52
20260503185111 62 359 0.0 0.0 0.00 0.00 0.00 52
20260503184610 62 359 0.0 0.0 0.00 0.00 0.00 53
20260503184111 63 359 0.0 0.0 0.00 0.00 0.00 53
20260503183610 61 359 0.0 0.0 0.00 0.00 0.00 54
20260503183110 60 359 0.0 0.0 0.00 0.00 0.00 56
20260503182611 60 359 0.0 0.0 0.00 0.00 0.00 55
20260503182111 61 359 0.0 0.0 0.00 0.00 0.00 55
20260503181610 63 359 0.0 0.0 0.00 0.00 0.00 56
20260503181110 62 359 0.0 0.0 0.00 0.00 0.00 55
20260503180610 63 359 0.0 0.0 0.00 0.00 0.00 55
20260503180111 63 359 0.0 0.0 0.00 0.00 0.00 56
20260503175610 62 359 0.0 0.0 0.00 0.00 0.00 54
20260503175111 62 359 0.0 0.0 0.00 0.00 0.00 56
20260503174611 61 359 0.0 0.0 0.00 0.00 0.00 55
20260503174111 61 359 0.0 0.0 0.00 0.00 0.00 54
20260503173611 61 359 0.0 0.0 0.00 0.00 0.00 55
20260503173111 61 359 0.0 0.0 0.00 0.00 0.00 56
20260503172610 62 359 0.0 0.0 0.00 0.00 0.00 56
20260503172111 62 359 0.0 0.0 0.00 0.00 0.00 56
20260503171611 60 359 0.0 0.0 0.00 0.00 0.00 56
20260503171111 60 359 0.0 0.0 0.00 0.00 0.00 56
20260503170610 60 359 0.0 0.0 0.00 0.00 0.00 56
20260503170111 61 359 0.0 0.0 0.00 0.00 0.00 57
20260503160110 59 359 0.0 0.0 0.00 0.00 0.00 60
20260503150611 60 359 0.0 0.0 0.00 0.00 0.00 60
20260503150111 60 359 0.0 0.0 0.00 0.00 0.00 61
20260503140111 56 359 0.0 0.0 0.00 0.00 0.00 63
20260503131111 52 359 0.0 0.0 0.00 0.00 0.00 67
20260503130611 51 359 0.0 0.0 0.00 0.00 0.00 68
20260503130111 51 359 0.0 0.0 0.00 0.00 0.00 67
20260503120111 46 359 0.0 0.0 0.00 0.00 0.00 73
20260503110611 41 359 0.0 0.0 0.00 0.00 0.00 82
20260503110111 42 359 0.0 0.0 0.00 0.00 0.00 83
20260503100111 42 359 0.0 0.0 0.00 0.00 0.00 80
20260503090111 39 359 0.0 0.0 0.00 0.00 0.00 87
20260503081611 39 359 0.0 0.0 0.00 0.00 0.00 88
20260503081111 40 359 0.0 0.0 0.00 0.00 0.00 89
20260503080611 39 359 0.0 0.0 0.00 0.00 0.00 89
20260503080111 40 359 0.0 0.0 0.00 0.00 0.00 87
20260503072611 41 359 0.0 0.0 0.00 0.00 0.00 86
20260503072111 41 359 0.0 0.0 0.00 0.00 0.00 86
20260503071611 39 359 0.0 0.0 0.00 0.00 0.00 86
20260503071111 39 359 0.0 0.0 0.00 0.00 0.00 88
20260503070611 39 359 0.0 0.0 0.00 0.00 0.00 87
20260503070111 39 359 0.0 0.0 0.00 0.00 0.00 85
20260503060111 42 359 0.0 0.0 0.00 0.00 0.00 86
20260503055111 41 359 0.0 0.0 0.00 0.00 0.00 87
20260503054611 40 359 0.0 0.0 0.00 0.00 0.00 87
20260503054111 41 359 0.0 0.0 0.00 0.00 0.00 84
20260503053611 41 359 0.0 0.0 0.00 0.00 0.00 85
20260503053111 41 359 0.0 0.0 0.00 0.00 0.00 86
20260503052611 41 359 0.0 0.0 0.00 0.00 0.00 86
20260503052111 42 359 0.0 0.0 0.00 0.00 0.00 84
20260503051611 42 359 0.0 0.0 0.00 0.00 0.00 85
20260503051111 41 359 0.0 0.0 0.00 0.00 0.00 86
20260503050611 41 359 0.0 0.0 0.00 0.00 0.00 87
20260503050111 41 359 0.0 0.0 0.00 0.00 0.00 86
20260503045611 41 359 0.0 0.0 0.00 0.00 0.00 84
20260503045111 42 359 0.0 0.0 0.00 0.00 0.00 85
20260503044611 41 359 0.0 0.0 0.00 0.00 0.00 86
20260503044111 40 359 0.0 0.0 0.00 0.00 0.00 87
20260503043611 42 359 0.0 0.0 0.00 0.00 0.00 83
20260503043111 42 359 0.0 0.0 0.00 0.00 0.00 83
20260503042611 42 359 0.0 0.0 0.00 0.00 0.00 84
20260503042111 41 359 0.0 0.0 0.00 0.00 0.00 85
20260503041611 40 359 0.0 0.0 0.00 0.00 0.00 86
20260503041111 44 359 0.0 0.0 0.00 0.00 0.00 82
20260503040611 42 359 0.0 0.0 0.00 0.00 0.00 83
20260503040111 41 359 0.0 0.0 0.00 0.00 0.00 85
20260503035611 41 359 0.0 0.0 0.00 0.00 0.00 85
20260503035111 42 359 0.0 0.0 0.00 0.00 0.00 86
20260503034611 44 359 0.0 0.0 0.00 0.00 0.00 81
20260503034111 44 359 0.0 0.0 0.00 0.00 0.00 82
20260503033611 43 359 0.0 0.0 0.00 0.00 0.00 83
20260503033111 43 359 0.0 0.0 0.00 0.00 0.00 84
20260503032611 41 359 0.0 0.0 0.00 0.00 0.00 84
20260503032111 43 359 0.0 0.0 0.00 0.00 0.00 78
20260503031611 43 359 0.0 0.0 0.00 0.00 0.00 78
20260503031111 42 359 0.0 0.0 0.00 0.00 0.00 80
20260503030611 43 359 0.0 0.0 0.00 0.00 0.00 81
20260503030111 43 359 0.0 0.0 0.00 0.00 0.00 79
20260503025611 43 359 0.0 0.0 0.00 0.00 0.00 75
20260503025111 43 359 0.0 0.0 0.00 0.00 0.00 76
20260503024611 42 359 0.0 0.0 0.00 0.00 0.00 79
20260503024111 47 359 0.0 0.0 0.00 0.00 0.00 75
20260503023611 45 359 0.0 0.0 0.00 0.00 0.00 69
20260503023111 48 359 0.0 0.0 0.00 0.00 0.00 68
20260503022611 48 359 0.0 0.0 0.00 0.00 0.00 67
20260503022111 48 359 0.0 0.0 0.00 0.00 0.00 66
20260503021611 48 359 0.0 0.0 0.00 0.00 0.00 65
20260503021111 49 359 0.0 0.0 0.00 0.00 0.00 65
20260503020611 47 359 0.0 0.0 0.00 0.00 0.00 63
20260503020111 47 359 0.0 0.0 0.00 0.00 0.00 63
20260503015611 47 359 0.0 0.0 0.00 0.00 0.00 60
20260503015111 47 359 0.0 0.0 0.00 0.00 0.00 61
20260503014611 48 359 0.0 0.0 0.00 0.00 0.00 58
20260503014111 48 359 0.0 0.0 0.00 0.00 0.00 59
20260503013611 47 359 0.0 0.0 0.00 0.00 0.00 58
20260503013111 50 359 0.0 0.0 0.00 0.00 0.00 58
20260503012611 47 359 0.0 0.0 0.00 0.00 0.00 57
20260503012111 50 359 0.0 0.0 0.00 0.00 0.00 57
20260503011611 50 359 0.0 0.0 0.00 0.00 0.00 57
20260503011111 50 359 0.0 0.0 0.00 0.00 0.00 58
20260503010611 51 359 0.0 0.0 0.00 0.00 0.00 56
20260503010111 51 359 0.0 0.0 0.00 0.00 0.00 54
20260503005611 51 359 0.0 0.0 0.00 0.00 0.00 55
20260503005111 50 359 0.0 0.0 0.00 0.00 0.00 54
20260503004611 52 359 0.0 0.0 0.00 0.00 0.00 54
20260503004111 52 359 0.0 0.0 0.00 0.00 0.00 54
20260503003611 52 359 0.0 0.0 0.00 0.00 0.00 53
20260503003111 52 359 0.0 0.0 0.00 0.00 0.00 52
20260503002611 53 359 0.0 0.0 0.00 0.00 0.00 49
20260503002111 52 359 0.0 0.0 0.00 0.00 0.00 49
20260503001611 54 359 0.0 0.0 0.00 0.00 0.00 47
20260503001111 55 359 0.0 0.0 0.00 0.00 0.00 48
20260503000611 56 359 0.0 0.0 0.00 0.00 0.00 47
20260503000111 54 359 0.0 0.0 0.00 0.00 0.00 46
20260502235611 55 359 0.0 0.0 0.00 0.00 0.00 45
20260502235111 56 359 0.0 0.0 0.00 0.00 0.00 45
20260502234611 57 359 0.0 0.0 0.00 0.00 0.00 44
20260502234111 56 359 0.0 0.0 0.00 0.00 0.00 44
20260502233611 56 359 0.0 0.0 0.00 0.00 0.00 44
20260502233111 56 359 0.0 0.0 0.00 0.00 0.00 44
20260502232611 56 359 0.0 0.0 0.00 0.00 0.00 45
20260502232111 58 359 0.0 0.0 0.00 0.00 0.00 43
20260502231611 57 359 0.0 0.0 0.00 0.00 0.00 43
20260502231111 56 359 0.0 0.0 0.00 0.00 0.00 44
20260502230611 57 359 0.0 0.0 0.00 0.00 0.00 44
20260502230111 55 359 0.0 0.0 0.00 0.00 0.00 45
20260502225611 58 359 0.0 0.0 0.00 0.00 0.00 43
20260502225111 58 359 0.0 0.0 0.00 0.00 0.00 39
20260502224611 57 359 0.0 0.0 0.00 0.00 0.00 39
20260502224111 58 359 0.0 0.0 0.00 0.00 0.00 39
20260502223611 60 359 0.0 0.0 0.00 0.00 0.00 39
20260502223111 57 359 0.0 0.0 0.00 0.00 0.00 40
20260502222611 57 359 0.0 0.0 0.00 0.00 0.00 42
20260502222111 57 359 0.0 0.0 0.00 0.00 0.00 42
20260502221611 56 359 0.0 0.0 0.00 0.00 0.00 40
20260502221111 56 359 0.0 0.0 0.00 0.00 0.00 41
20260502220611 58 359 0.0 0.0 0.00 0.00 0.00 42
20260502220111 57 359 0.0 0.0 0.00 0.00 0.00 42
20260502215611 57 359 0.0 0.0 0.00 0.00 0.00 42